Regional Weather Roundup
Issued by NWS Northern Indiana

Home | Current Version | Previous Version | Text Only | Print | Product List | Glossary Off
Versions: 1 2 3 4 5 6 7 8 9 10 11 12 13 14 15 16 17 18 19 20 21 22 23 24 25 26 27 28 29 30 31 32 33 34 35 36 37 38 39 40 41 42 43 44 45 46 47 48 49 50

000
ASUS43 KIWX 091300
RWRIWX

KIWX WEATHER ROUNDUP
NATIONAL WEATHER SERVICE NORTHERN INDIANA
800 AM EST FRI DEC 09 2016

NOTE: "FAIR" INDICATES FEW OR NO CLOUDS BELOW 12,000 FEET WITH NO
SIGNIFICANT WEATHER AND/OR OBSTRUCTIONS TO VISIBILITY.

* THESE STATIONS ARE NOT UNDER NWS QUALITY CONTROL. THEY ALSO MAY NOT
  REPORT WEATHER SUCH AS PRECIPITATION OR FOG.

INZ001>027-091400-
NORTHERN INDIANA

CITY           SKY/WX    TMP DP  RH WIND       PRES   REMARKS
GARY*          CLOUDY    25  19  80 W10       30.50R WCI  15
LAPORTE*       FLURRIES  23  18  83 W10       30.45R WCI  12
KNOX*          CLOUDY    23   3  42 W15       30.47R WCI  10
SOUTH BEND     FLURRIES  22  20  92 W13       30.42R WCI  10
ELKHART*       MOCLDY    21  19  93 W8        30.41R WCI  12
GOSHEN         CLOUDY    22  16  78 W12       30.42R WCI  10
MONTICELLO*    FLURRIES  22  15  75 W8G16     30.50R WCI  12
WARSAW*        CLOUDY    21  16  79 W8        30.44R WCI  12
ANGOLA*        CLOUDY    21  19  93 W10       30.37R WCI  10
FORT WAYNE     PTCLDY    21  15  78 W15G24    30.43R WCI   8
PERU/GRISSOM   CLOUDY    22  18  85 W13       30.46R WCI  10

$$
INZ028>050-091400-
CENTRAL INDIANA

CITY           SKY/WX    TMP DP  RH WIND       PRES   REMARKS
LAFAYETTE      FLURRIES  22  17  81 W10       30.52R WCI  11
KOKOMO*        CLOUDY    21  17  84 W14       30.48R WCI   8
MUNCIE*        CLEAR     18  13  80 W7        30.47R WCI   9
INDIANAPOLIS   FLURRIES  20  15  81 W13       30.51S WCI   7

$$
MIZ043>046-050>051-056>058-064>065-071>073-077>080-091400-
SOUTHWEST LOWER MICHIGAN

CITY           SKY/WX    TMP DP  RH WIND       PRES   REMARKS
BATTLE CREEK   LGT SNOW  25  24  96 SW5       30.36R FOG     WCI  19
BENTON HARBOR  CLOUDY    31  17  56 W14G21    30.41R WCI  21
COLDWATER*     LGT SNOW  24  22  94 W5        30.37R WCI  18
HILLSDALE*     LGT SNOW  23  19  86 W9        30.34R WCI  13
HOLLAND        CLOUDY    30  19  63 W15G22    30.38R WCI  19
GRAND RAPIDS   CLOUDY    27  19  72 NW8       30.36R WCI  19
KALAMAZOO      LGT SNOW  27  24  89 W5        30.37R VSB 3/4 WCI  22
STURGIS*       LGT SNOW  22  20  92 W8        30.38R WCI  13
THREE RIVERS*  LGT SNOW  24  22  92 SW6       30.39R WCI  16

$$
OHZ001>008-015>018-024>025-091400-
NORTHWEST OHIO

CITY           SKY/WX    TMP DP  RH WIND       PRES   REMARKS
DEFIANCE       FLURRIES  24  17  74 W10       30.40R WCI  14
FINDLAY        CLOUDY    23  16  74 W16G23    30.39R WCI  10
TOLEDO EXPRESS CLOUDY    22  21  96 W12       30.37R WCI  10
TOLEDO METCALF LGT SNOW  23  20  88 W12       30.38S FOG     WCI  12
LIMA           CLOUDY    20  17  88 W16       30.41R WCI   6

$$
AND FOR LAKE MICHIGAN COASTAL AND OPEN LAKE BUOY OBSERVATIONS

STATION/POSITION TEMP    WIND        PRES    VSBY  WAVE
                 AIR SEA DIR/SP/G                  HT/PER
                 (F)     (DEG/KT/KT) (MB)    (MI)  (FT/S)
CALUMET HARBOR    23     260/  4/  7 1031.6R
BURNS HARBOR      27     280/ 17/ 22 1032.2R
SAINT JOSEPH      32     300/ 16/ 23 1029.8

$$
&&



USA.gov is the U.S. government's official web portal to all federal, state and local government web resources and services.